This is the latest recevied weather packets stored in our database for station/object KE4EST. If no packets are shown the sender has not sent any weather packets the latest 10 day(s).
| Time | Temp. | Humidity | Pressure | Rain* | Wind** | Luminosity | Snow |
|---|---|---|---|---|---|---|---|
| 1778158776 | 15° C | 99% | 1011.8 hPa | 0 mm | - | 46 W/m² | - |
| 1778158473 | 15.56° C | 99% | 1011.8 hPa | 0 mm | - | 52 W/m² | - |
| 1778158170 | 15.56° C | 99% | 1012.2 hPa | 0 mm | - | 69 W/m² | - |
| 1778157866 | 15.56° C | 99% | 1011.9 hPa | 0 mm | - | 33 W/m² | - |
| 1778157565 | 15° C | 99% | 1012.1 hPa | 0 mm | - | 51 W/m² | - |
| 1778157261 | 15° C | 99% | 1012.1 hPa | 0 mm | - | 26 W/m² | - |
| 1778156958 | 15° C | 99% | 1012.4 hPa | 1.78 mm | - | 21 W/m² | - |
| 1778156653 | 15° C | 99% | 1012.4 hPa | 1.78 mm | - | 22 W/m² | - |
| 1778156350 | 15.56° C | 99% | 1012.5 hPa | 0 mm | - | 17 W/m² | - |
| 1778156045 | 15.56° C | 99% | 1012.7 hPa | 0 mm | - | 20 W/m² | - |
| 1778155741 | 15.56° C | 99% | 1012.7 hPa | 0 mm | - | 15 W/m² | - |
| 1778155438 | 15.56° C | 99% | 1012.4 hPa | 0 mm | - | 11 W/m² | - |
| 1778155134 | 15.56° C | 99% | 1011.6 hPa | 0 mm | - | 29 W/m² | - |
| 1778154830 | 15.56° C | 99% | 1011.9 hPa | 1.27 mm | - | 6 W/m² | - |
| 1778154527 | 15.56° C | 99% | 1011.5 hPa | 1.27 mm | - | 2 W/m² | - |
| 1778154224 | 15.56° C | 99% | 1011.4 hPa | 1.78 mm | - | 4 W/m² | - |
| 1778153921 | 15.56° C | 99% | 1011.5 hPa | 1.78 mm | - | 7 W/m² | - |
| 1778153618 | 15.56° C | 99% | 1011.4 hPa | 0 mm | - | 3 W/m² | - |
| 1778153315 | 15.56° C | 99% | 1011.7 hPa | 0 mm | - | 3 W/m² | - |
| 1778153012 | 15.56° C | 99% | 1011.1 hPa | 1.27 mm | - | 9 W/m² | - |
| 1778152710 | 15.56° C | 99% | 1011 hPa | 3.05 mm | - | 11 W/m² | - |
| 1778152407 | 15.56° C | 99% | 1011.4 hPa | 1.78 mm | - | 6 W/m² | - |
| 1778152102 | 15.56° C | 99% | 1011.5 hPa | 1.78 mm | - | 2 W/m² | - |
| 1778151793 | 15° C | 99% | 1011.5 hPa | 1.78 mm | - | 1 W/m² | - |
| 1778151490 | 15° C | 99% | 1011.5 hPa | 0 mm | - | 1 W/m² | - |
* Rain latest hour (hover to see other rain measurements)
** Current wind speed in m/s (hover to see current wind gust speed)